Regional Weather Roundup
Issued by NWS

Home | Current Version | Previous Version | Graphics & Text | Print | Product List | Glossary On
Versions: 1 2 3 4 5 6 7 8 9 10 11 12 13 14 15 16 17 18 19 20 21 22 23 24 25 26 27 28 29 30 31 32 33 34 35 36 37 38 39 40 41 42 43 44 45 46 47 48 49 50
000
ASUS45 KCYS 040610
RWRWY

WYOMING REGIONAL WEATHER ROUNDUP
NATIONAL WEATHER SERVICE CHEYENNE WY
1100 PM MST SAT DEC 03 2016

NOTE:  "FAIR" INDICATES FEW OR NO CLOUDS BELOW 12,000 FEET
WITH NO SIGNIFICANT WEATHER AND/OR OBSTRUCTIONS TO VISIBILITY.

WYZ001-040700-
YELLOWSTONE NATIONAL PARK

CITY           SKY/WX    TMP DP  RH WIND       PRES   REMARKS
LK YELLOWSTONE   N/A     18  16  92 VRB7      30.04F WCI   9
6HR MIN TEMP:  15; 6HR MAX TEMP:  18;

W YELLOWSTONE  NOT AVBL

$$
WYZ002>013-054>058-071-098>099-040700-
NORTHERN WYOMING

CITY           SKY/WX    TMP DP  RH WIND       PRES   REMARKS
JACKSON        CLOUDY    25  23  93 S21       30.07F WCI  10
CODY           FAIR      34  13  41 W13       29.97F WCI  25
GREYBULL       FAIR      26  17  68 SE7       29.99F WCI  18
6HR MIN TEMP:  26; 6HR MAX TEMP:  35;

WORLAND        FAIR      20  15  81 S3        30.00S
6HR MIN TEMP:  19; 6HR MAX TEMP:  36;

SHERIDAN       CLOUDY    34  16  47 W10       29.93F WCI  26
6HR MIN TEMP:  27; 6HR MAX TEMP:  37;

BUFFALO        CLOUDY    32   9  38 SW8       29.93S WCI  25
6HR MIN TEMP:  31; 6HR MAX TEMP:  39;

GILLETTE       MOCLDY    30  18  60 W7        29.93S WCI  23
6HR MIN TEMP:  28; 6HR MAX TEMP:  35;

HULETT         MOCLDY    32  27  80 SW7       29.93S WCI  26
NEWCASTLE      FAIR      27  19  74 N5        29.96R WCI  21

$$
WYZ014>020-022>026-101>103-040700-
CENTRAL WYOMING

CITY           SKY/WX    TMP DP  RH WIND       PRES   REMARKS
BIG PINEY      FAIR       7   4  87 N6        30.13R WCI  -3
6HR MIN TEMP:   6; 6HR MAX TEMP:  19;

PINEDALE       FAIR       9   9 100 NW5       30.12R WCI   0
DUBOIS         FAIR      23   9  54 NW17G37   29.98R WCI   9
LANDER         FAIR      21   7  54 E6        30.00F WCI  13
6HR MIN TEMP:  18; 6HR MAX TEMP:  30;

RIVERTON       FAIR      28  11  48 NW16      30.00F WCI  16
6HR MIN TEMP:  26; 6HR MAX TEMP:  32;

CASPER         FAIR      24  11  57 SW14      30.00R WCI  12
6HR MIN TEMP:  18; 6HR MAX TEMP:  34;

DOUGLAS        FAIR      21  13  71 NW5       30.00R WCI  15
6HR MIN TEMP:  20; 6HR MAX TEMP:  33;


$$
WYZ021-027>030-104>119-040700-
SOUTHERN WYOMING

CITY           SKY/WX    TMP DP  RH WIND       PRES   REMARKS
EVANSTON       CLOUDY    22  13  68 SW8       30.20R WCI  12
6HR MIN TEMP:  22; 6HR MAX TEMP:  23;

FORT BRIDGER   CLOUDY    25  18  74 W12       30.20R WCI  14
ROCK SPRINGS   FAIR      20  15  81 W18       30.13R WCI   5
6HR MIN TEMP:  19; 6HR MAX TEMP:  23;

DIXON          CLOUDY    25  17  70 W5        30.20R WCI  19
RAWLINS        FAIR      19  13  77 W25G33    30.05F WCI   1
6HR MIN TEMP:  19; 6HR MAX TEMP:  24;

SARATOGA       FAIR      19  14  79 SW8G18    30.11R WCI   9
LARAMIE        FAIR      19   8  62 W15       29.99S WCI   5
6HR MIN TEMP:  16; 6HR MAX TEMP:  22;

CHEYENNE       FAIR      24   9  52 W18G25    29.99R WCI  10
6HR MIN TEMP:  24; 6HR MAX TEMP:  29;

TORRINGTON     FAIR      30  15  53 W10       29.99S WCI  21
6HR MIN TEMP:  30; 6HR MAX TEMP:  35;

PINE BLUFFS    FAIR      25  12  58 W9        30.02R WCI  15

$$



USA.gov is the U.S. government's official web portal to all federal, state and local government web resources and services.